Wind_Speed
2 3 5 7 6 7 8 7 8 9 11 17 15 12 11 18 16 15 16 17 18 19 18 17 16 16 15 15 15 15 14 15 13 15 14 14 18 14 28 36 35 36 32 31
3 2 4 7 8 7 9 11 9 7 10 14 18 5 8 18 19 16 16 17 17 17 18 19 20 19 17 16 16 13 14 16 15 13 15 15 17 15 20 36 37 36 35 32
2 2 3 8 9 10 8 12 12 8 10 9 16 3 10 15 22 20 19 17 16 15 15 16 17 18 18 17 17 15 13 16 17 17 22 20 19 16 18 34 38 37 36 35
1 1 2 8 10 11 9 14 13 7 8 3 14 5 6 14 20 20 19 18 17 16 16 16 18 19 20 20 21 17 15 17 19 16 19 17 15 12 18 18 37 37 36 35
6 4 2 6 10 12 10 15 11 5 5 5 12 3 4 14 17 18 18 17 16 16 16 17 18 19 19 20 21 17 17 17 17 17 18 16 16 12 12 17 24 39 35 36
4 5 3 3 9 11 14 14 9 3 4 1 7 6 5 12 16 14 18 17 16 15 16 17 18 20 21 19 18 13 10 14 15 18 12 18 18 15 12 10 23 26 31 40
7 6 4 2 5 10 10 14 2 1 1 1 8 4 6 12 13 12 14 17 17 16 15 17 19 20 19 18 18 16 8 6 11 18 15 17 20 20 18 14 11 19 24 16
4 3 3 2 1 6 9 7 2 3 1 4 6 3 6 12 10 9 13 16 16 17 15 15 18 18 19 17 17 17 14 7 4 12 15 16 18 20 21 18 14 16 30 21
3 3 5 6 3 4 6 4 4 2 2 1 5 6 6 14 8 7 10 15 16 16 17 18 19 20 20 20 18 16 15 13 7 4 8 14 17 18 20 20 18 16 23 28
4 5 6 5 4 3 6 6 4 2 2 2 4 7 5 12 8 6 8 12 16 17 17 18 20 22 21 20 19 15 13 13 12 4 3 9 14 17 19 19 19 19 17 21
5 6 5 5 5 5 6 7 4 3 2 1 2 4 6 12 7 4 6 10 13 17 19 18 20 23 23 22 19 16 12 10 10 9 4 2 8 12 16 18 20 21 22 20
9 7 7 7 8 8 7 10 9 4 4 5 4 6 6 12 7 4 6 8 11 14 18 20 20 23 23 23 20 17 15 9 9 10 7 1 4 8 12 16 18 20 23 24
5 6 4 4 4 5 6 8 12 11 10 10 4 3 10 12 8 5 5 7 9 13 16 20 21 22 24 23 20 17 14 11 9 8 7 4 1 4 7 11 15 18 20 20
12 13 13 9 10 13 13 16 16 17 9 8 18 17 7 12 10 7 6 6 8 11 14 17 20 21 24 25 21 18 15 12 10 8 6 4 3 2 4 6 10 13 16 19
15 17 18 17 18 20 22 21 23 28 26 19 18 18 4 11 11 5 3 6 7 8 11 14 17 19 23 25 22 20 17 15 14 14 11 8 5 4 3 3 6 10 13 15
22 19 17 22 20 21 27 23 27 32 34 34 30 16 7 5 4 3 2 3 5 6 8 10 13 14 19 23 22 20 19 18 18 18 16 15 13 9 4 3 5 8 11 13
20 19 12 14 13 15 25 18 18 30 29 24 22 7 7 4 4 3 3 1 2 3 5 7 9 9 13 18 22 19 17 19 20 21 22 20 18 14 9 4 3 6 9 12
24 20 15 13 9 4 13 12 12 11 9 12 14 11 10 7 4 4 3 2 1 1 2 4 5 6 8 12 15 18 18 17 18 19 20 21 20 19 17 11 4 4 6 9
27 24 13 8 13 19 25 22 18 21 17 9 9 15 14 10 7 5 4 3 2 1 1 2 2 4 4 6 9 11 12 13 14 16 16 17 19 19 21 19 13 4 4 7
30 31 27 16 7 6 9 7 7 8 17 11 10 11 12 12 9 5 4 3 2 2 0 1 0 2 3 3 3 6 8 9 11 12 13 14 14 14 16 18 18 15 9 4
35 37 36 32 19 18 24 19 19 14 13 6 5 7 9 9 7 4 3 3 2 2 2 1 0 1 2 3 3 3 4 5 6 8 9 10 10 11 12 13 15 16 17 12
27 24 28 29 15 18 19 25 28 19 12 8 4 4 8 9 8 5 4 5 4 5 4 3 3 2 2 3 3 4 5 5 5 5 5 5 5 6 7 8 9 9 10 13
34 36 28 26 17 11 7 6 3 5 6 4 5 5 7 9 9 7 4 6 7 7 6 6 7 6 3 3 3 4 7 9 9 8 7 7 6 4 2 3 4 4 4 4
37 34 39 35 34 29 22 19 13 10 11 17 15 14 11 11 13 11 9 8 10 10 8 7 9 11 10 9 10 10 8 9 11 13 13 11 10 9 8 6 4 3 3 2
29 31 40 43 37 32 28 27 22 24 18 21 18 19 17 16 16 15 13 11 11 12 10 10 9 10 12 11 11 12 12 12 13 14 15 17 17 16 14 13 12 10 9 9
31 34 37 36 28 25 24 22 23 16 18 18 21 24 22 22 19 20 17 16 15 14 14 13 13 14 14 14 13 14 15 15 15 15 16 18 19 20 21 20 19 18 17 17
Wind_Direction
349 1 354 342 357 24 16 24 3 349 355 360 356 358 359 3 353 339 327 321 320 319 318 314 309 305 304 298 294 289 278 271 266 249 242 233 198 227 211 206 200 205 208 206
310 290 336 326 345 345 359 3 351 340 345 354 354 37 345 358 1 353 338 327 320 315 313 312 310 309 304 298 296 298 274 261 256 260 228 226 200 216 212 216 197 204 204 205
294 286 337 323 330 337 331 342 342 346 342 347 1 60 354 358 359 352 346 341 329 322 316 315 313 313 308 301 294 299 280 261 253 236 245 228 221 219 218 214 196 202 203 203
273 339 344 322 324 329 317 330 333 6 7 340 12 325 356 2 357 351 349 345 339 332 328 324 319 318 314 308 298 292 280 263 251 235 250 228 218 222 228 217 203 202 205 207
284 279 309 319 322 325 316 320 324 351 355 353 8 2 308 349 2 350 351 348 347 346 345 343 340 334 331 322 308 296 276 267 247 229 230 240 228 234 222 213 221 203 210 209
269 273 283 324 321 319 318 325 316 334 10 47 350 2 298 340 346 357 350 351 353 356 351 349 349 346 346 348 347 334 286 264 240 228 219 244 242 232 216 205 204 205 217 221
296 289 267 288 323 320 319 336 320 307 41 346 309 317 322 332 342 352 356 353 352 353 355 351 357 356 358 357 360 356 345 289 241 225 211 231 232 229 221 224 213 217 206 216
265 284 253 242 324 315 302 342 348 291 294 305 290 270 330 347 345 348 354 0 358 354 357 358 0 3 4 6 5 8 5 10 255 229 215 222 228 222 220 224 230 226 214 210
283 259 267 277 280 347 307 305 314 240 258 292 282 310 320 349 348 347 359 353 0 356 356 1 4 9 5 6 11 4 8 11 10 287 254 232 227 224 218 224 225 234 214 210
271 276 261 262 278 287 279 282 295 299 282 329 285 284 294 352 353 345 349 354 352 357 358 359 359 1 7 5 7 14 10 11 12 11 233 243 245 230 227 223 222 225 221 215
266 257 257 257 253 241 271 272 263 275 208 217 302 255 333 357 359 346 337 348 352 354 357 356 356 357 3 12 16 18 18 15 19 19 13 259 242 242 237 230 223 222 221 224
269 272 261 257 264 257 263 253 246 237 253 222 218 275 322 345 352 337 327 335 345 353 356 0 357 356 0 7 14 22 22 27 23 26 33 44 226 237 234 232 231 228 225 220
236 233 262 272 278 232 244 267 255 251 268 239 198 268 319 320 337 325 303 317 334 346 353 0 0 0 2 6 8 19 23 34 37 35 26 26 169 202 224 228 227 225 226 228
250 254 244 253 281 285 270 280 272 245 240 252 256 290 296 309 318 314 313 305 324 336 344 355 359 3 5 8 13 25 33 34 37 40 44 37 67 136 192 200 209 217 222 224
260 261 266 267 273 280 279 277 270 259 258 251 273 289 265 257 293 294 295 303 312 324 331 348 358 5 8 10 17 22 35 43 50 51 50 51 57 82 100 172 196 203 206 210
256 261 270 276 281 286 283 275 264 259 256 259 267 278 257 244 267 294 286 293 317 321 323 342 357 6 11 14 20 30 49 57 59 62 65 57 51 49 65 107 160 187 192 199
253 256 265 274 281 290 288 287 265 260 260 260 255 276 247 254 275 296 288 295 326 316 319 333 349 7 14 22 26 31 45 63 67 65 65 64 58 52 49 59 113 161 182 191
248 250 247 269 276 251 272 266 260 260 238 259 256 242 242 238 234 265 267 273 292 338 321 324 338 1 17 23 34 45 50 53 61 63 59 55 52 51 48 49 78 145 171 188
238 240 237 240 228 269 268 268 261 275 278 276 266 212 226 228 215 230 249 242 264 314 32 29 338 346 356 20 31 32 40 41 39 49 57 57 56 52 50 47 45 72 156 176
234 233 229 230 236 233 267 260 252 246 285 287 229 223 219 215 209 218 240 243 258 273 35 78 346 300 333 339 5 26 31 35 39 40 46 48 53 57 51 52 49 49 57 95
219 226 227 231 240 256 247 253 255 267 277 250 238 217 213 201 199 190 214 218 240 272 259 222 156 268 292 311 307 327 359 12 21 31 34 43 47 45 54 58 63 69 64 60
227 220 221 225 230 258 270 249 241 257 251 241 245 207 202 208 200 202 221 231 260 281 279 270 270 246 265 291 284 287 293 304 325 344 360 8 29 51 47 50 59 74 86 84
226 227 232 225 240 257 278 248 162 206 234 256 270 244 231 227 227 230 247 252 252 266 281 261 263 271 268 273 293 307 293 288 283 287 298 311 319 327 6 37 44 75 58 100
241 239 236 243 247 251 251 259 265 267 279 290 278 266 265 249 248 247 262 279 255 256 269 259 248 262 274 282 291 293 292 290 282 278 274 273 279 287 287 285 275 283 280 217
242 243 246 249 253 259 256 256 265 282 264 259 257 256 249 257 258 250 256 281 257 254 252 255 255 260 269 275 278 285 286 282 279 276 272 270 267 265 268 273 272 263 252 253
252 245 238 249 269 270 258 246 246 268 251 263 260 246 244 259 258 256 255 269 264 256 250 252 257 267 271 273 275 278 279 279 278 277 274 270 268 267 264 262 260 263 263 260
Height
3156 3156 3155 3154 3153 3150 3148 3143 3142 3141 3139 3137 3136 3134 3133 3130 3125 3121 3118 3115 3111 3107 3103 3099 3097 3093 3091 3087 3085 3084 3083 3082 3081 3081 3079 3079 3079 3081 3083 3086 3094 3100 3106 3110
3156 3154 3154 3153 3152 3150 3147 3144 3142 3140 3137 3136 3133 3131 3130 3127 3123 3120 3117 3113 3109 3105 3100 3096 3093 3090 3087 3084 3082 3081 3079 3078 3077 3077 3077 3076 3077 3079 3079 3082 3089 3095 3101 3107
3154 3153 3152 3152 3151 3149 3146 3144 3141 3138 3135 3134 3132 3130 3128 3126 3123 3119 3115 3112 3107 3103 3099 3095 3091 3088 3084 3081 3078 3077 3075 3073 3074 3074 3073 3072 3074 3076 3077 3079 3084 3091 3097 3102
3153 3152 3150 3151 3151 3149 3146 3143 3139 3135 3135 3135 3132 3133 3129 3125 3121 3118 3114 3110 3107 3102 3099 3095 3091 3086 3082 3078 3073 3072 3070 3068 3069 3070 3070 3068 3071 3073 3074 3077 3083 3087 3092 3098
3152 3150 3148 3149 3149 3148 3146 3142 3138 3134 3133 3133 3132 3132 3128 3124 3120 3118 3114 3109 3105 3102 3098 3094 3090 3085 3080 3075 3069 3066 3064 3063 3063 3065 3066 3065 3067 3069 3072 3074 3076 3083 3087 3092
3150 3149 3147 3146 3147 3146 3144 3140 3137 3133 3132 3134 3133 3133 3127 3124 3120 3117 3114 3109 3106 3102 3097 3093 3089 3084 3079 3074 3067 3061 3058 3057 3058 3058 3062 3065 3066 3069 3072 3071 3074 3079 3084 3088
3148 3147 3146 3145 3145 3145 3143 3139 3137 3135 3132 3134 3131 3130 3125 3122 3119 3116 3113 3110 3106 3102 3098 3092 3087 3082 3077 3073 3068 3062 3058 3055 3055 3056 3057 3061 3065 3068 3069 3072 3073 3076 3080 3082
3146 3145 3145 3144 3143 3145 3143 3141 3139 3136 3134 3134 3129 3127 3125 3121 3118 3115 3112 3109 3107 3102 3097 3092 3087 3083 3077 3072 3068 3063 3058 3055 3054 3055 3055 3058 3061 3064 3066 3070 3071 3074 3077 3081
3145 3143 3143 3142 3141 3143 3142 3140 3140 3137 3135 3132 3127 3124 3123 3120 3116 3114 3112 3109 3105 3102 3098 3093 3088 3083 3078 3072 3068 3063 3060 3057 3054 3051 3052 3055 3058 3060 3063 3066 3069 3073 3075 3079
3143 3143 3141 3140 3140 3140 3141 3141 3138 3135 3132 3128 3126 3122 3121 3118 3115 3113 3112 3109 3105 3102 3099 3095 3090 3084 3079 3074 3068 3065 3061 3058 3055 3054 3053 3054 3055 3057 3059 3062 3065 3070 3074 3076
3141 3142 3141 3139 3137 3137 3138 3138 3136 3135 3133 3130 3130 3120 3117 3116 3114 3112 3110 3108 3106 3103 3100 3096 3091 3086 3080 3075 3070 3065 3062 3059 3057 3055 3052 3052 3054 3056 3058 3060 3063 3067 3070 3074
3139 3138 3137 3137 3135 3134 3134 3135 3135 3134 3132 3128 3127 3118 3114 3113 3112 3110 3109 3106 3105 3102 3099 3097 3093 3088 3082 3076 3071 3066 3063 3060 3057 3055 3055 3053 3053 3055 3056 3059 3061 3064 3068 3070
3136 3136 3135 3133 3134 3131 3131 3133 3132 3131 3130 3124 3124 3115 3112 3111 3110 3109 3107 3105 3103 3102 3099 3096 3093 3090 3084 3079 3073 3067 3063 3060 3058 3057 3056 3056 3055 3054 3056 3057 3058 3061 3064 3067
3134 3133 3132 3131 3130 3130 3128 3129 3128 3128 3126 3119 3113 3110 3111 3108 3108 3107 3106 3104 3102 3101 3099 3097 3093 3089 3086 3080 3074 3069 3064 3062 3060 3059 3058 3058 3055 3054 3054 3054 3055 3058 3061 3065
3131 3129 3128 3127 3125 3124 3122 3122 3121 3118 3118 3116 3108 3106 3107 3107 3105 3104 3103 3102 3101 3099 3099 3096 3093 3090 3086 3082 3077 3071 3067 3065 3062 3060 3059 3058 3057 3055 3054 3053 3054 3056 3059 3063
3126 3124 3124 3122 3120 3118 3113 3114 3112 3110 3108 3105 3104 3101 3101 3102 3102 3101 3100 3100 3099 3097 3098 3096 3094 3091 3088 3084 3079 3075 3070 3067 3065 3062 3061 3060 3059 3059 3058 3056 3056 3056 3059 3062
3122 3121 3121 3117 3115 3113 3106 3102 3100 3099 3099 3101 3099 3100 3099 3099 3099 3099 3099 3098 3097 3096 3095 3095 3093 3091 3089 3085 3082 3078 3075 3070 3068 3067 3065 3064 3063 3062 3061 3060 3059 3059 3060 3061
3115 3117 3118 3115 3114 3111 3099 3097 3097 3095 3094 3094 3095 3096 3096 3096 3096 3096 3096 3096 3095 3094 3093 3092 3091 3091 3090 3088 3085 3082 3080 3078 3073 3069 3068 3066 3065 3063 3061 3061 3062 3062 3062 3062
3109 3111 3112 3112 3107 3101 3095 3094 3093 3092 3090 3089 3089 3092 3092 3092 3093 3093 3093 3093 3093 3092 3090 3090 3090 3090 3089 3088 3087 3085 3084 3081 3079 3076 3073 3071 3069 3067 3065 3063 3062 3062 3063 3063
3100 3103 3106 3106 3104 3098 3091 3089 3089 3088 3085 3084 3085 3087 3089 3090 3089 3090 3090 3090 3091 3090 3089 3088 3088 3088 3087 3087 3086 3085 3085 3083 3082 3079 3077 3075 3073 3071 3071 3069 3066 3065 3064 3065
3089 3093 3093 3097 3096 3087 3087 3087 3087 3089 3087 3083 3083 3083 3084 3087 3089 3088 3088 3088 3088 3088 3087 3086 3086 3086 3086 3085 3085 3085 3085 3084 3083 3082 3080 3078 3076 3075 3072 3071 3070 3069 3069 3069
3079 3082 3083 3088 3091 3083 3078 3078 3079 3081 3081 3081 3081 3082 3082 3084 3086 3086 3086 3086 3086 3086 3086 3086 3085 3084 3084 3084 3083 3084 3084 3084 3083 3082 3081 3080 3079 3076 3076 3075 3073 3071 3071 3070
3069 3069 3070 3072 3073 3074 3075 3074 3074 3076 3078 3079 3079 3079 3080 3080 3082 3084 3084 3083 3083 3083 3083 3083 3083 3083 3082 3081 3081 3082 3082 3082 3082 3081 3081 3080 3079 3079 3077 3076 3076 3074 3074 3072
3055 3061 3059 3063 3065 3068 3072 3073 3074 3075 3076 3076 3076 3076 3076 3077 3078 3079 3080 3080 3080 3079 3080 3080 3080 3080 3080 3080 3079 3078 3078 3078 3078 3079 3079 3078 3078 3077 3077 3077 3075 3075 3075 3073
3047 3051 3050 3050 3056 3059 3063 3067 3069 3069 3069 3069 3070 3071 3071 3071 3072 3074 3075 3075 3075 3076 3076 3077 3076 3077 3076 3076 3076 3075 3075 3074 3073 3073 3074 3074 3075 3074 3074 3074 3074 3073 3072 3073
3036 3039 3040 3040 3051 3052 3055 3057 3056 3059 3061 3063 3062 3063 3065 3066 3066 3067 3068 3070 3069 3070 3071 3072 3072 3072 3072 3071 3071 3071 3070 3069 3069 3068 3068 3069 3069 3069 3069 3069 3070 3070 3069 3069